Weather History for New Orleans, LA

Change the Weather History Date:

Friday, May 11, 2012

  Actual Average Record
Temperature  
Mean Temperature 72 °F -  
Max Temperature 77 °F 83 °F 91 °F (2003)
Min Temperature 68 °F 65 °F 51 °F (1960)
Cooling Degree Days 8    
Growing Degree Days 22 (Base 50)    
Moisture  
Dew Point 63 °F    
Average Humidity 74    
Maximum Humidity 88    
Minimum Humidity 54    
Precipitation  
Precipitation 0.28 in - - ()
Sea Level Pressure  
Sea Level Pressure 29.98 in    
Wind  
Wind Speed 5 mph (ESE)    
Max Wind Speed 17 mph    
Max Gust Speed 26 mph    
Visibility 9 miles    
Events Rain , Thunderstorm    
Averages and records for this station are not official NWS values.
T = Trace of Precipitation, MM = Missing Value Source: NWS Daily Summary

Daily Weather History Graph

Daily Weather History Graph

Search for Another Location

Airport:

Trip Planner

Search our weather history database for the weather conditions in past years. The results will help you decide how hot, cold, wet, or windy it might be!

Date:

Astronomy

May. 11, 2012 Rise Set
Actual Time 6:09 AM CDT 7:45 PM CDT
Civil Twilight 5:43 AM CDT 8:11 PM CDT
Nautical Twilight 5:12 AM CDT 8:42 PM CDT
Astronomical Twilight 4:40 AM CDT 9:15 PM CDT
Moon 12:27 AM CDT (5/11) 11:38 AM CDT (5/11)
Length of Visible Light 14h 27m
Length of Day
13h 35m
Waning Gibbous, 63% of the Moon is Illuminated
May 11
Waning Gibbous
May 12
Last Quarter
May 20
New
May 28
First Quarter
Jun 4
Full

Hourly Weather History & Observations

Time (CDT) Temp. Dew Point Humidity Pressure Visibility Wind Dir Wind Speed Gust Speed Precip Events Conditions
12:53 AM 71.1 °F 59.0 °F 66% 29.95 in 10.0 mi SE 4.6 mph - N/A   Mostly Cloudy
1:53 AM 71.1 °F 57.9 °F 63% 29.94 in 10.0 mi ESE 4.6 mph - N/A   Clear
2:53 AM 70.0 °F 59.0 °F 68% 29.94 in 10.0 mi SE 3.5 mph - N/A   Scattered Clouds
3:53 AM 70.0 °F 60.1 °F 71% 29.94 in 10.0 mi Calm Calm - N/A   Scattered Clouds
4:53 AM 70.0 °F 61.0 °F 73% 29.93 in 10.0 mi East 4.6 mph - N/A   Mostly Cloudy
5:53 AM 69.1 °F 60.1 °F 73% 29.91 in 10.0 mi East 4.6 mph - N/A   Overcast
6:53 AM 71.1 °F 59.0 °F 66% 29.94 in 10.0 mi Calm Calm - N/A   Overcast
7:53 AM 75.0 °F 59.0 °F 57% 29.96 in 10.0 mi ESE 6.9 mph - N/A   Overcast
8:53 AM 75.9 °F 57.9 °F 54% 30.00 in 10.0 mi East 9.2 mph - N/A   Overcast
9:53 AM 77.0 °F 60.1 °F 56% 30.02 in 10.0 mi ESE 4.6 mph - N/A   Overcast
10:53 AM 75.9 °F 62.1 °F 62% 30.03 in 10.0 mi SE 5.8 mph - 0.00 in Rain Light Rain
11:53 AM 73.9 °F 64.9 °F 73% 30.04 in 10.0 mi SE 5.8 mph - 0.02 in Rain Light Rain
12:53 PM 73.0 °F 64.0 °F 73% 30.00 in 10.0 mi East 6.9 mph - 0.02 in Rain Light Rain
1:53 PM 72.0 °F 66.9 °F 84% 30.05 in 7.0 mi WSW 6.9 mph - 0.02 in Rain Light Rain
2:44 PM 71.6 °F 66.2 °F 83% 30.04 in 2.0 mi SSE 6.9 mph - 0.11 in Rain Light Rain
2:53 PM 71.1 °F 66.9 °F 87% 30.05 in 2.0 mi SE 5.8 mph - 0.14 in Rain Light Rain
3:24 PM 69.8 °F 66.2 °F 88% 30.01 in 6.0 mi East 5.8 mph - 0.08 in Rain , Thunderstorm Light Thunderstorms and Rain
3:44 PM 71.6 °F 66.2 °F 83% 30.00 in 6.0 mi ESE 9.2 mph - 0.10 in Rain Light Rain
3:53 PM 71.1 °F 66.9 °F 87% 29.98 in 5.0 mi East 12.7 mph - 0.12 in Rain Light Rain
4:53 PM 72.0 °F 66.9 °F 84% 29.94 in 10.0 mi ESE 17.3 mph 26.5 mph 0.01 in   Overcast
5:53 PM 72.0 °F 66.0 °F 81% 29.94 in 10.0 mi SE 15.0 mph 21.9 mph N/A   Overcast
6:53 PM 73.0 °F 66.9 °F 81% 29.94 in 10.0 mi ESE 12.7 mph 19.6 mph N/A   Overcast
7:53 PM 73.0 °F 68.0 °F 84% 29.95 in 10.0 mi ESE 6.9 mph - N/A   Mostly Cloudy
8:53 PM 73.0 °F 68.0 °F 84% 29.98 in 10.0 mi SSE 5.8 mph - N/A   Overcast
9:53 PM 72.0 °F 66.0 °F 81% 30.00 in 10.0 mi SE 3.5 mph - N/A   Mostly Cloudy
10:53 PM 72.0 °F 66.9 °F 84% 30.02 in 10.0 mi SE 3.5 mph - N/A   Overcast
11:53 PM 72.0 °F 66.9 °F 84% 30.02 in 10.0 mi Calm Calm - N/A   Overcast